sat.trackr.live / text

‹ back to catalog

STARLINK-11603 [DTC]

NORAD 63671 · 2025-085H

PAYLOAD ACTIVE UNKNOWN

§ Identity

Operator
Country
US
Launch date
2025-04-28
Launch site
AFETR
Launch vehicle
Mass (kg)
RCS (m²)

Purposes: comms

External: N2YO · Heavens-Above · Gunter

§ Orbital elements

Epoch: 2026-09-20T21:47:48.539616Z

Period
91.67 min
Inclination
43.0000°
Eccentricity
0.0003369
Mean motion
15.70812682 rev/d
Perigee alt
354.3 km
Apogee alt
358.8 km
Semi-major
6,734.7 km
B*
7.6074e-4
RAAN
181.7915°
Arg perigee
292.8896°
Mean anomaly
67.1616°
Rev number
8,094

§ Raw data

STARLINK-11603 [DTC]1 63671U 25085H   26263.90820069  .00098232  00000+0  76074-3 0  99962 63671  43.0000 181.7915 0003369 292.8896  67.1616 15.70812682 80947

JSON: /api/v1/satellites/63671 · /tle

For live sub-satellite position, see the globe view (requires WebGL).

§ Visibility from observer

Set your observer location to see the next 7 days of passes ≥ 10°. The values pass through the URL so the page stays shareable.

No JS? Fill the form by hand. The geolocation button needs JavaScript.